Location: Unspecified
(50.7693°N, 0.0000°E)
Time: 19:24:24
(UTC+00:00)

Vanguard 2 - Pass Details

Date: 22 June 2019
Orbit: 553 x 2938 km, 32.9° (Epoch: 20 August)

Event Time Altitude Azimuth Distance (km) Brightness Sun altitude
Rises 07:54:12 0° 202° (SSW) 3,195 10.6 35.5°
Reaches altitude 10° 07:58:18 10° 169° (SSE) 2,649 10.6 36.2°
Maximum altitude 08:00:19 12° 150° (SSE) 2,738 11.0 36.5°
Drops below altitude 10° 08:02:36 10° 132° (SE) 3,092 11.5 36.8°
Sets 08:08:45 0° 104° (ESE) 4,719 12.5 37.8°
